Date_Time,Julian_Date,Latitude,Longitude,Instrument_Depth,U,V,Speed,Direction
(yyyy-mm-dd hh:mn:ss UTC),(JD),(+ deg. North),(+ deg. East),(m),(cm/s),(cm/s),(cm/s),(deg True)
1982-05-16 21:00:00 UTC,2445106.375000,29.6650,-93.4789,0086,-7.85,1.53,8.0000,281.0000
1982-05-16 21:30:00 UTC,2445106.395833,29.6650,-93.4789,0086,-8.98,0.63,9.0000,274.0000
1982-05-16 22:00:00 UTC,2445106.416667,29.6650,-93.4789,0086,-9.99,0.52,10.0000,273.0000
1982-05-16 22:30:00 UTC,2445106.437500,29.6650,-93.4789,0086,-10.97,0.77,11.0000,274.0000
1982-05-16 23:00:00 UTC,2445106.458333,29.6650,-93.4789,0086,-10.94,1.15,11.0000,276.0000
1982-05-16 23:30:00 UTC,2445106.479167,29.6650,-93.4789,0086,-10.86,1.72,11.0000,279.0000
1982-05-17 00:00:00 UTC,2445106.500000,29.6650,-93.4789,0086,-9.95,1.05,10.0000,276.0000
1982-05-17 00:30:00 UTC,2445106.520833,29.6650,-93.4789,0086,-8.00,0.14,8.0000,271.0000
1982-05-17 01:00:00 UTC,2445106.541667,29.6650,-93.4789,0086,-6.00,0.10,6.0000,271.0000
1982-05-17 01:30:00 UTC,2445106.562500,29.6650,-93.4789,0086,-5.98,-0.52,6.0000,265.0000
1982-05-17 02:00:00 UTC,2445106.583333,29.6650,-93.4789,0086,-7.85,-1.53,8.0000,259.0000
1982-05-17 02:30:00 UTC,2445106.604167,29.6650,-93.4789,0086,-8.95,-0.94,9.0000,264.0000
1982-05-17 03:00:00 UTC,2445106.625000,29.6650,-93.4789,0086,-10.00,-0.00,10.0000,270.0000
1982-05-17 03:30:00 UTC,2445106.645833,29.6650,-93.4789,0086,-9.99,0.52,10.0000,273.0000
1982-05-17 04:00:00 UTC,2445106.666667,29.6650,-93.4789,0086,-9.99,0.35,10.0000,272.0000
1982-05-17 04:30:00 UTC,2445106.687500,29.6650,-93.4789,0086,-10.00,-0.00,10.0000,270.0000
1982-05-17 05:00:00 UTC,2445106.708333,29.6650,-93.4789,0086,-9.00,0.16,9.0000,271.0000
1982-05-17 05:30:00 UTC,2445106.729167,29.6650,-93.4789,0086,-8.99,-0.47,9.0000,267.0000
1982-05-17 06:00:00 UTC,2445106.750000,29.6650,-93.4789,0086,-7.85,-1.53,8.0000,259.0000
1982-05-17 06:30:00 UTC,2445106.770833,29.6650,-93.4789,0086,-5.71,-1.85,6.0000,252.0000
1982-05-17 07:00:00 UTC,2445106.791667,29.6650,-93.4789,0086,-2.33,-1.89,3.0000,231.0000
1982-05-17 07:30:00 UTC,2445106.812500,29.6650,-93.4789,0086,2.19,-2.05,3.0000,133.0000
1982-05-17 08:00:00 UTC,2445106.833333,29.6650,-93.4789,0086,1.41,-2.65,3.0000,152.0000
1982-05-17 08:30:00 UTC,2445106.854167,29.6650,-93.4789,0086,-3.78,-4.66,6.0000,219.0000
1982-05-17 09:00:00 UTC,2445106.875000,29.6650,-93.4789,0086,-7.55,-4.90,9.0000,237.0000
1982-05-17 09:30:00 UTC,2445106.895833,29.6650,-93.4789,0086,-7.06,-3.76,8.0000,242.0000
1982-05-17 10:00:00 UTC,2445106.916667,29.6650,-93.4789,0086,-5.87,-1.25,6.0000,258.0000
1982-05-17 10:30:00 UTC,2445106.937500,29.6650,-93.4789,0086,-4.94,0.78,5.0000,279.0000
1982-05-17 11:00:00 UTC,2445106.958333,29.6650,-93.4789,0086,-3.96,-0.56,4.0000,262.0000
1982-05-17 11:30:00 UTC,2445106.979167,29.6650,-93.4789,0086,-2.88,-0.83,3.0000,254.0000
1982-05-17 12:00:00 UTC,2445107.000000,29.6650,-93.4789,0086,-0.74,0.67,1.0000,312.0000
1982-05-17 12:30:00 UTC,2445107.020833,29.6650,-93.4789,0086,-0.16,0.99,1.0000,351.0000
1982-05-17 13:00:00 UTC,2445107.041667,29.6650,-93.4789,0086,0.90,0.44,1.0000,64.0000
1982-05-17 13:30:00 UTC,2445107.062500,29.6650,-93.4789,0086,6.00,-0.21,6.0000,92.0000
1982-05-17 14:00:00 UTC,2445107.083333,29.6650,-93.4789,0086,9.82,-1.91,10.0000,101.0000
1982-05-17 14:30:00 UTC,2445107.104167,29.6650,-93.4789,0086,5.39,-2.63,6.0000,116.0000
1982-05-17 15:00:00 UTC,2445107.125000,29.6650,-93.4789,0086,-1.31,-1.51,2.0000,221.0000
1982-05-17 15:30:00 UTC,2445107.145833,29.6650,-93.4789,0086,-3.00,-0.00,3.0000,270.0000
1982-05-17 16:00:00 UTC,2445107.166667,29.6650,-93.4789,0086,-3.00,0.16,3.0000,273.0000
1982-05-17 16:30:00 UTC,2445107.187500,29.6650,-93.4789,0086,-3.00,0.05,3.0000,271.0000
1982-05-17 17:00:00 UTC,2445107.208333,29.6650,-93.4789,0086,-1.31,-1.51,2.0000,221.0000
1982-05-17 17:30:00 UTC,2445107.229167,29.6650,-93.4789,0086,-2.29,-3.28,4.0000,215.0000
1982-05-17 18:00:00 UTC,2445107.250000,29.6650,-93.4789,0086,-4.73,-1.63,5.0000,251.0000
1982-05-17 18:30:00 UTC,2445107.270833,29.6650,-93.4789,0086,-8.00,-0.28,8.0000,268.0000
1982-05-17 19:00:00 UTC,2445107.291667,29.6650,-93.4789,0086,-7.00,0.12,7.0000,271.0000
1982-05-17 19:30:00 UTC,2445107.312500,29.6650,-93.4789,0086,-4.95,-0.70,5.0000,262.0000
1982-05-17 20:00:00 UTC,2445107.333333,29.6650,-93.4789,0086,-4.67,-1.79,5.0000,249.0000
1982-05-17 20:30:00 UTC,2445107.354167,29.6650,-93.4789,0086,-6.82,-1.57,7.0000,257.0000
1982-05-17 21:00:00 UTC,2445107.375000,29.6650,-93.4789,0086,-9.00,-0.00,9.0000,270.0000
1982-05-17 21:30:00 UTC,2445107.395833,29.6650,-93.4789,0086,-7.98,0.56,8.0000,274.0000
1982-05-17 22:00:00 UTC,2445107.416667,29.6650,-93.4789,0086,-6.97,-0.61,7.0000,265.0000
1982-05-17 22:30:00 UTC,2445107.437500,29.6650,-93.4789,0086,-5.94,-0.84,6.0000,262.0000
1982-05-17 23:00:00 UTC,2445107.458333,29.6650,-93.4789,0086,-7.00,0.12,7.0000,271.0000
1982-05-17 23:30:00 UTC,2445107.479167,29.6650,-93.4789,0086,-7.97,0.70,8.0000,275.0000
1982-05-18 00:00:00 UTC,2445107.500000,29.6650,-93.4789,0086,-8.97,0.78,9.0000,275.0000
1982-05-18 00:30:00 UTC,2445107.520833,29.6650,-93.4789,0086,-8.89,1.41,9.0000,279.0000
1982-05-18 01:00:00 UTC,2445107.541667,29.6650,-93.4789,0086,-8.65,2.48,9.0000,286.0000
1982-05-18 01:30:00 UTC,2445107.562500,29.6650,-93.4789,0086,-8.34,3.37,9.0000,292.0000
1982-05-18 02:00:00 UTC,2445107.583333,29.6650,-93.4789,0086,-8.56,2.78,9.0000,288.0000
1982-05-18 02:30:00 UTC,2445107.604167,29.6650,-93.4789,0086,-8.93,1.10,9.0000,277.0000
1982-05-18 03:00:00 UTC,2445107.625000,29.6650,-93.4789,0086,-9.00,0.16,9.0000,271.0000
1982-05-18 03:30:00 UTC,2445107.645833,29.6650,-93.4789,0086,-8.99,0.31,9.0000,272.0000
1982-05-18 04:00:00 UTC,2445107.666667,29.6650,-93.4789,0086,-8.00,0.14,8.0000,271.0000
1982-05-18 04:30:00 UTC,2445107.687500,29.6650,-93.4789,0086,-7.83,-1.66,8.0000,258.0000
1982-05-18 05:00:00 UTC,2445107.708333,29.6650,-93.4789,0086,-7.83,-1.66,8.0000,258.0000
1982-05-18 05:30:00 UTC,2445107.729167,29.6650,-93.4789,0086,-6.95,-0.85,7.0000,263.0000
1982-05-18 06:00:00 UTC,2445107.750000,29.6650,-93.4789,0086,-5.64,-2.05,6.0000,250.0000
1982-05-18 06:30:00 UTC,2445107.770833,29.6650,-93.4789,0086,-6.12,-3.39,7.0000,241.0000
1982-05-18 07:00:00 UTC,2445107.791667,29.6650,-93.4789,0086,-7.42,-3.00,8.0000,248.0000
1982-05-18 07:30:00 UTC,2445107.812500,29.6650,-93.4789,0086,-8.83,-1.72,9.0000,259.0000
1982-05-18 08:00:00 UTC,2445107.833333,29.6650,-93.4789,0086,-8.95,-0.94,9.0000,264.0000
1982-05-18 08:30:00 UTC,2445107.854167,29.6650,-93.4789,0086,-8.93,-1.10,9.0000,263.0000
1982-05-18 09:00:00 UTC,2445107.875000,29.6650,-93.4789,0086,-8.98,-0.63,9.0000,266.0000
1982-05-18 09:30:00 UTC,2445107.895833,29.6650,-93.4789,0086,-9.00,-0.00,9.0000,270.0000
1982-05-18 10:00:00 UTC,2445107.916667,29.6650,-93.4789,0086,-7.98,-0.56,8.0000,266.0000
1982-05-18 10:30:00 UTC,2445107.937500,29.6650,-93.4789,0086,-6.97,-0.61,7.0000,265.0000
1982-05-18 11:00:00 UTC,2445107.958333,29.6650,-93.4789,0086,-7.99,-0.42,8.0000,267.0000
1982-05-18 11:30:00 UTC,2445107.979167,29.6650,-93.4789,0086,-7.94,-0.97,8.0000,263.0000
1982-05-18 12:00:00 UTC,2445108.000000,29.6650,-93.4789,0086,-6.93,-0.97,7.0000,262.0000
1982-05-18 12:30:00 UTC,2445108.020833,29.6650,-93.4789,0086,-6.95,-0.85,7.0000,263.0000
1982-05-18 13:00:00 UTC,2445108.041667,29.6650,-93.4789,0086,-6.89,-1.22,7.0000,260.0000
1982-05-18 13:30:00 UTC,2445108.062500,29.6650,-93.4789,0086,-6.93,-0.97,7.0000,262.0000
1982-05-18 14:00:00 UTC,2445108.083333,29.6650,-93.4789,0086,-7.94,-0.97,8.0000,263.0000
1982-05-18 14:30:00 UTC,2445108.104167,29.6650,-93.4789,0086,-8.91,-1.25,9.0000,262.0000
1982-05-18 15:00:00 UTC,2445108.125000,29.6650,-93.4789,0086,-9.96,-0.87,10.0000,265.0000
1982-05-18 15:30:00 UTC,2445108.145833,29.6650,-93.4789,0086,-10.00,-0.17,10.0000,269.0000
1982-05-18 16:00:00 UTC,2445108.166667,29.6650,-93.4789,0086,-9.99,-0.35,10.0000,268.0000
1982-05-18 16:30:00 UTC,2445108.187500,29.6650,-93.4789,0086,-8.98,-0.63,9.0000,266.0000
1982-05-18 17:00:00 UTC,2445108.208333,29.6650,-93.4789,0086,-9.00,-0.16,9.0000,269.0000
1982-05-18 17:30:00 UTC,2445108.229167,29.6650,-93.4789,0086,-9.00,0.16,9.0000,271.0000
1982-05-18 18:00:00 UTC,2445108.250000,29.6650,-93.4789,0086,-8.00,-0.28,8.0000,268.0000
1982-05-18 18:30:00 UTC,2445108.270833,29.6650,-93.4789,0086,-6.93,-0.97,7.0000,262.0000
1982-05-18 19:00:00 UTC,2445108.291667,29.6650,-93.4789,0086,-6.93,-0.97,7.0000,262.0000
1982-05-18 19:30:00 UTC,2445108.312500,29.6650,-93.4789,0086,-6.97,-0.61,7.0000,265.0000
1982-05-18 20:00:00 UTC,2445108.333333,29.6650,-93.4789,0086,-6.98,-0.49,7.0000,266.0000
1982-05-18 20:30:00 UTC,2445108.354167,29.6650,-93.4789,0086,-6.91,-1.10,7.0000,261.0000
1982-05-18 21:00:00 UTC,2445108.375000,29.6650,-93.4789,0086,-5.77,-1.65,6.0000,254.0000
1982-05-18 21:30:00 UTC,2445108.395833,29.6650,-93.4789,0086,-5.52,-2.34,6.0000,247.0000
1982-05-18 22:00:00 UTC,2445108.416667,29.6650,-93.4789,0086,-5.35,-2.72,6.0000,243.0000
1982-05-18 22:30:00 UTC,2445108.437500,29.6650,-93.4789,0086,-5.56,-2.25,6.0000,248.0000
1982-05-18 23:00:00 UTC,2445108.458333,29.6650,-93.4789,0086,-5.85,-1.35,6.0000,257.0000
1982-05-18 23:30:00 UTC,2445108.479167,29.6650,-93.4789,0086,-4.78,-1.46,5.0000,253.0000
1982-05-19 00:00:00 UTC,2445108.500000,29.6650,-93.4789,0086,-1.45,-2.62,3.0000,209.0000
1982-05-19 00:30:00 UTC,2445108.520833,29.6650,-93.4789,0086,0.07,-4.00,4.0000,179.0000
1982-05-19 01:00:00 UTC,2445108.541667,29.6650,-93.4789,0086,-0.21,-3.99,4.0000,183.0000
1982-05-19 01:30:00 UTC,2445108.562500,29.6650,-93.4789,0086,-2.58,-4.29,5.0000,211.0000
1982-05-19 02:00:00 UTC,2445108.583333,29.6650,-93.4789,0086,-6.12,-3.39,7.0000,241.0000
1982-05-19 02:30:00 UTC,2445108.604167,29.6650,-93.4789,0086,-9.70,-2.42,10.0000,256.0000
1982-05-19 03:00:00 UTC,2445108.625000,29.6650,-93.4789,0086,-10.86,-1.72,11.0000,261.0000
1982-05-19 03:30:00 UTC,2445108.645833,29.6650,-93.4789,0086,-11.82,-2.08,12.0000,260.0000
1982-05-19 04:00:00 UTC,2445108.666667,29.6650,-93.4789,0086,-12.61,-3.15,13.0000,256.0000
1982-05-19 04:30:00 UTC,2445108.687500,29.6650,-93.4789,0086,-11.78,-2.29,12.0000,259.0000
1982-05-19 05:00:00 UTC,2445108.708333,29.6650,-93.4789,0086,-11.00,0.19,11.0000,271.0000
1982-05-19 05:30:00 UTC,2445108.729167,29.6650,-93.4789,0086,-9.98,0.70,10.0000,274.0000
1982-05-19 06:00:00 UTC,2445108.750000,29.6650,-93.4789,0086,-6.98,0.49,7.0000,274.0000
1982-05-19 06:30:00 UTC,2445108.770833,29.6650,-93.4789,0086,-3.65,1.63,4.0000,294.0000
1982-05-19 07:00:00 UTC,2445108.791667,29.6650,-93.4789,0086,-1.22,2.74,3.0000,336.0000
1982-05-19 07:30:00 UTC,2445108.812500,29.6650,-93.4789,0086,-0.78,1.84,2.0000,337.0000
1982-05-19 08:00:00 UTC,2445108.833333,29.6650,-93.4789,0086,0.37,-0.93,1.0000,158.0000
1982-05-19 08:30:00 UTC,2445108.854167,29.6650,-93.4789,0086,2.65,-1.41,3.0000,118.0000
1982-05-19 09:00:00 UTC,2445108.875000,29.6650,-93.4789,0086,6.00,0.21,6.0000,88.0000
1982-05-19 09:30:00 UTC,2445108.895833,29.6650,-93.4789,0086,6.86,4.12,8.0000,59.0000
1982-05-19 10:00:00 UTC,2445108.916667,29.6650,-93.4789,0086,4.64,7.71,9.0000,31.0000
1982-05-19 10:30:00 UTC,2445108.937500,29.6650,-93.4789,0086,2.08,9.78,10.0000,12.0000
1982-05-19 11:00:00 UTC,2445108.958333,29.6650,-93.4789,0086,1.22,9.93,10.0000,7.0000
1982-05-19 11:30:00 UTC,2445108.979167,29.6650,-93.4789,0086,1.74,9.85,10.0000,10.0000
1982-05-19 12:00:00 UTC,2445109.000000,29.6650,-93.4789,0086,3.00,7.42,8.0000,22.0000
1982-05-19 12:30:00 UTC,2445109.020833,29.6650,-93.4789,0086,2.62,6.49,7.0000,22.0000
1982-05-19 13:00:00 UTC,2445109.041667,29.6650,-93.4789,0086,-0.24,7.00,7.0000,358.0000
1982-05-19 13:30:00 UTC,2445109.062500,29.6650,-93.4789,0086,-3.51,7.19,8.0000,334.0000
1982-05-19 14:00:00 UTC,2445109.083333,29.6650,-93.4789,0086,-5.90,6.79,9.0000,319.0000
1982-05-19 14:30:00 UTC,2445109.104167,29.6650,-93.4789,0086,-6.04,5.25,8.0000,311.0000
1982-05-19 15:00:00 UTC,2445109.125000,29.6650,-93.4789,0086,-7.00,3.88,8.0000,299.0000
1982-05-19 15:30:00 UTC,2445109.145833,29.6650,-93.4789,0086,-7.69,2.21,8.0000,286.0000
1982-05-19 16:00:00 UTC,2445109.166667,29.6650,-93.4789,0086,-7.92,1.11,8.0000,278.0000
1982-05-19 16:30:00 UTC,2445109.187500,29.6650,-93.4789,0086,-8.97,0.78,9.0000,275.0000
1982-05-19 17:00:00 UTC,2445109.208333,29.6650,-93.4789,0086,-8.99,0.31,9.0000,272.0000
1982-05-19 17:30:00 UTC,2445109.229167,29.6650,-93.4789,0086,-8.99,-0.47,9.0000,267.0000
1982-05-19 18:00:00 UTC,2445109.250000,29.6650,-93.4789,0086,-7.98,-0.56,8.0000,266.0000
1982-05-19 18:30:00 UTC,2445109.270833,29.6650,-93.4789,0086,-6.96,-0.73,7.0000,264.0000
1982-05-19 19:00:00 UTC,2445109.291667,29.6650,-93.4789,0086,-6.79,-1.69,7.0000,256.0000
1982-05-19 19:30:00 UTC,2445109.312500,29.6650,-93.4789,0086,-7.65,-2.34,8.0000,253.0000
1982-05-19 20:00:00 UTC,2445109.333333,29.6650,-93.4789,0086,-7.85,-1.53,8.0000,259.0000
1982-05-19 20:30:00 UTC,2445109.354167,29.6650,-93.4789,0086,-7.99,-0.42,8.0000,267.0000
1982-05-19 21:00:00 UTC,2445109.375000,29.6650,-93.4789,0086,-8.97,-0.78,9.0000,265.0000
1982-05-19 21:30:00 UTC,2445109.395833,29.6650,-93.4789,0086,-9.90,-1.39,10.0000,262.0000
1982-05-19 22:00:00 UTC,2445109.416667,29.6650,-93.4789,0086,-8.99,-0.31,9.0000,268.0000
1982-05-19 22:30:00 UTC,2445109.437500,29.6650,-93.4789,0086,-7.96,0.84,8.0000,276.0000
1982-05-19 23:00:00 UTC,2445109.458333,29.6650,-93.4789,0086,-7.96,0.84,8.0000,276.0000
1982-05-19 23:30:00 UTC,2445109.479167,29.6650,-93.4789,0086,-8.98,0.63,9.0000,274.0000
1982-05-20 00:00:00 UTC,2445109.500000,29.6650,-93.4789,0086,-8.99,0.47,9.0000,273.0000
1982-05-20 00:30:00 UTC,2445109.520833,29.6650,-93.4789,0086,-8.99,0.47,9.0000,273.0000
1982-05-20 01:00:00 UTC,2445109.541667,29.6650,-93.4789,0086,-9.00,-0.00,9.0000,270.0000
1982-05-20 01:30:00 UTC,2445109.562500,29.6650,-93.4789,0086,-8.99,-0.31,9.0000,268.0000
1982-05-20 02:00:00 UTC,2445109.583333,29.6650,-93.4789,0086,-8.99,0.31,9.0000,272.0000
1982-05-20 02:30:00 UTC,2445109.604167,29.6650,-93.4789,0086,-8.95,0.94,9.0000,276.0000
1982-05-20 03:00:00 UTC,2445109.625000,29.6650,-93.4789,0086,-9.93,1.22,10.0000,277.0000
1982-05-20 03:30:00 UTC,2445109.645833,29.6650,-93.4789,0086,-8.95,0.94,9.0000,276.0000
1982-05-20 04:00:00 UTC,2445109.666667,29.6650,-93.4789,0086,-8.99,0.47,9.0000,273.0000
1982-05-20 04:30:00 UTC,2445109.687500,29.6650,-93.4789,0086,-9.00,-0.16,9.0000,269.0000
1982-05-20 05:00:00 UTC,2445109.708333,29.6650,-93.4789,0086,-7.96,-0.84,8.0000,264.0000
1982-05-20 05:30:00 UTC,2445109.729167,29.6650,-93.4789,0086,-7.83,-1.66,8.0000,258.0000
1982-05-20 06:00:00 UTC,2445109.750000,29.6650,-93.4789,0086,-6.44,-2.74,7.0000,247.0000
1982-05-20 06:30:00 UTC,2445109.770833,29.6650,-93.4789,0086,-5.09,-3.18,6.0000,238.0000
1982-05-20 07:00:00 UTC,2445109.791667,29.6650,-93.4789,0086,-6.12,-3.39,7.0000,241.0000
1982-05-20 07:30:00 UTC,2445109.812500,29.6650,-93.4789,0086,-6.39,-2.85,7.0000,246.0000
1982-05-20 08:00:00 UTC,2445109.833333,29.6650,-93.4789,0086,-6.39,-2.85,7.0000,246.0000
1982-05-20 08:30:00 UTC,2445109.854167,29.6650,-93.4789,0086,-6.24,-3.18,7.0000,243.0000
1982-05-20 09:00:00 UTC,2445109.875000,29.6650,-93.4789,0086,-6.44,-2.74,7.0000,247.0000
1982-05-20 09:30:00 UTC,2445109.895833,29.6650,-93.4789,0086,-7.76,-1.94,8.0000,256.0000
1982-05-20 10:00:00 UTC,2445109.916667,29.6650,-93.4789,0086,-8.89,-1.41,9.0000,261.0000
1982-05-20 10:30:00 UTC,2445109.937500,29.6650,-93.4789,0086,-8.97,-0.78,9.0000,265.0000
1982-05-20 11:00:00 UTC,2445109.958333,29.6650,-93.4789,0086,-10.00,-0.17,10.0000,269.0000
1982-05-20 11:30:00 UTC,2445109.979167,29.6650,-93.4789,0086,-11.00,0.19,11.0000,271.0000
1982-05-20 12:00:00 UTC,2445110.000000,29.6650,-93.4789,0086,-12.99,0.45,13.0000,272.0000
1982-05-20 12:30:00 UTC,2445110.020833,29.6650,-93.4789,0086,-12.95,1.13,13.0000,275.0000
1982-05-20 13:00:00 UTC,2445110.041667,29.6650,-93.4789,0086,-11.91,1.46,12.0000,277.0000
1982-05-20 13:30:00 UTC,2445110.062500,29.6650,-93.4789,0086,-9.88,1.56,10.0000,279.0000
1982-05-20 14:00:00 UTC,2445110.083333,29.6650,-93.4789,0086,-8.86,1.56,9.0000,280.0000
1982-05-20 14:30:00 UTC,2445110.104167,29.6650,-93.4789,0086,-7.92,1.11,8.0000,278.0000
1982-05-20 15:00:00 UTC,2445110.125000,29.6650,-93.4789,0086,-7.00,0.24,7.0000,272.0000
1982-05-20 15:30:00 UTC,2445110.145833,29.6650,-93.4789,0086,-7.00,-0.24,7.0000,268.0000
1982-05-20 16:00:00 UTC,2445110.166667,29.6650,-93.4789,0086,-6.95,-0.85,7.0000,263.0000
1982-05-20 16:30:00 UTC,2445110.187500,29.6650,-93.4789,0086,-6.93,-0.97,7.0000,262.0000
1982-05-20 17:00:00 UTC,2445110.208333,29.6650,-93.4789,0086,-5.98,-0.52,6.0000,265.0000
1982-05-20 17:30:00 UTC,2445110.229167,29.6650,-93.4789,0086,-7.69,-2.21,8.0000,254.0000
1982-05-20 18:00:00 UTC,2445110.250000,29.6650,-93.4789,0086,-8.28,-3.52,9.0000,247.0000
1982-05-20 18:30:00 UTC,2445110.270833,29.6650,-93.4789,0086,-6.86,-4.12,8.0000,239.0000
1982-05-20 19:00:00 UTC,2445110.291667,29.6650,-93.4789,0086,-3.21,-3.83,5.0000,220.0000
1982-05-20 19:30:00 UTC,2445110.312500,29.6650,-93.4789,0086,0.24,-1.99,2.0000,173.0000
1982-05-20 20:00:00 UTC,2445110.333333,29.6650,-93.4789,0086,1.85,-0.75,2.0000,112.0000
1982-05-20 20:30:00 UTC,2445110.354167,29.6650,-93.4789,0086,1.96,-0.42,2.0000,102.0000
1982-05-20 21:00:00 UTC,2445110.375000,29.6650,-93.4789,0086,4.92,-0.87,5.0000,100.0000
1982-05-20 21:30:00 UTC,2445110.395833,29.6650,-93.4789,0086,7.00,0.00,7.0000,90.0000
1982-05-20 22:00:00 UTC,2445110.416667,29.6650,-93.4789,0086,7.97,0.70,8.0000,85.0000
1982-05-20 22:30:00 UTC,2445110.437500,29.6650,-93.4789,0086,7.96,-0.84,8.0000,96.0000
1982-05-20 23:00:00 UTC,2445110.458333,29.6650,-93.4789,0086,6.93,-0.97,7.0000,98.0000
1982-05-20 23:30:00 UTC,2445110.479167,29.6650,-93.4789,0086,5.52,2.34,6.0000,67.0000
1982-05-21 00:00:00 UTC,2445110.500000,29.6650,-93.4789,0086,6.13,5.14,8.0000,50.0000
1982-05-21 00:30:00 UTC,2445110.520833,29.6650,-93.4789,0086,7.09,5.54,9.0000,52.0000
1982-05-21 01:00:00 UTC,2445110.541667,29.6650,-93.4789,0086,6.36,6.36,9.0000,45.0000
1982-05-21 01:30:00 UTC,2445110.562500,29.6650,-93.4789,0086,4.12,6.86,8.0000,31.0000
1982-05-21 02:00:00 UTC,2445110.583333,29.6650,-93.4789,0086,3.76,7.06,8.0000,28.0000
1982-05-21 02:30:00 UTC,2445110.604167,29.6650,-93.4789,0086,4.02,5.73,7.0000,35.0000
1982-05-21 03:00:00 UTC,2445110.625000,29.6650,-93.4789,0086,3.83,3.21,5.0000,50.0000
1982-05-21 03:30:00 UTC,2445110.645833,29.6650,-93.4789,0086,3.39,2.12,4.0000,58.0000
1982-05-21 04:00:00 UTC,2445110.666667,29.6650,-93.4789,0086,-0.16,3.00,3.0000,357.0000
1982-05-21 04:30:00 UTC,2445110.687500,29.6650,-93.4789,0086,-2.11,4.53,5.0000,335.0000
1982-05-21 05:00:00 UTC,2445110.708333,29.6650,-93.4789,0086,0.42,2.97,3.0000,8.0000
1982-05-21 05:30:00 UTC,2445110.729167,29.6650,-93.4789,0086,1.12,1.66,2.0000,34.0000
1982-05-21 06:00:00 UTC,2445110.750000,29.6650,-93.4789,0086,-2.91,0.73,3.0000,284.0000
1982-05-21 06:30:00 UTC,2445110.770833,29.6650,-93.4789,0086,-7.98,-0.56,8.0000,266.0000
1982-05-21 07:00:00 UTC,2445110.791667,29.6650,-93.4789,0086,-9.82,-1.91,10.0000,259.0000
1982-05-21 07:30:00 UTC,2445110.812500,29.6650,-93.4789,0086,-8.69,-2.33,9.0000,255.0000
1982-05-21 08:00:00 UTC,2445110.833333,29.6650,-93.4789,0086,-8.73,-2.18,9.0000,256.0000
1982-05-21 08:30:00 UTC,2445110.854167,29.6650,-93.4789,0086,-9.93,-1.22,10.0000,263.0000
1982-05-21 09:00:00 UTC,2445110.875000,29.6650,-93.4789,0086,-9.00,0.16,9.0000,271.0000
1982-05-21 09:30:00 UTC,2445110.895833,29.6650,-93.4789,0086,-8.00,-0.28,8.0000,268.0000
1982-05-21 10:00:00 UTC,2445110.916667,29.6650,-93.4789,0086,-6.93,-0.97,7.0000,262.0000
1982-05-21 10:30:00 UTC,2445110.937500,29.6650,-93.4789,0086,-7.00,-0.24,7.0000,268.0000
1982-05-21 11:00:00 UTC,2445110.958333,29.6650,-93.4789,0086,-6.95,0.85,7.0000,277.0000
1982-05-21 11:30:00 UTC,2445110.979167,29.6650,-93.4789,0086,-6.62,2.28,7.0000,289.0000
1982-05-21 12:00:00 UTC,2445111.000000,29.6650,-93.4789,0086,-5.30,2.82,6.0000,298.0000
1982-05-21 12:30:00 UTC,2445111.020833,29.6650,-93.4789,0086,-5.52,2.34,6.0000,293.0000
1982-05-21 13:00:00 UTC,2445111.041667,29.6650,-93.4789,0086,-6.62,2.28,7.0000,289.0000
1982-05-21 13:30:00 UTC,2445111.062500,29.6650,-93.4789,0086,-6.62,2.28,7.0000,289.0000
1982-05-21 14:00:00 UTC,2445111.083333,29.6650,-93.4789,0086,-6.66,2.16,7.0000,288.0000
1982-05-21 14:30:00 UTC,2445111.104167,29.6650,-93.4789,0086,-6.69,2.05,7.0000,287.0000
1982-05-21 15:00:00 UTC,2445111.125000,29.6650,-93.4789,0086,-6.79,1.69,7.0000,284.0000
1982-05-21 15:30:00 UTC,2445111.145833,29.6650,-93.4789,0086,-6.89,1.22,7.0000,280.0000
1982-05-21 16:00:00 UTC,2445111.166667,29.6650,-93.4789,0086,-5.94,0.84,6.0000,278.0000
1982-05-21 16:30:00 UTC,2445111.187500,29.6650,-93.4789,0086,-4.98,0.44,5.0000,275.0000
1982-05-21 17:00:00 UTC,2445111.208333,29.6650,-93.4789,0086,-4.97,-0.52,5.0000,264.0000
1982-05-21 17:30:00 UTC,2445111.229167,29.6650,-93.4789,0086,-5.89,-1.14,6.0000,259.0000
1982-05-21 18:00:00 UTC,2445111.250000,29.6650,-93.4789,0086,-5.91,-1.04,6.0000,260.0000
1982-05-21 18:30:00 UTC,2445111.270833,29.6650,-93.4789,0086,-5.85,-1.35,6.0000,257.0000
1982-05-21 19:00:00 UTC,2445111.291667,29.6650,-93.4789,0086,-5.60,-2.15,6.0000,249.0000
1982-05-21 19:30:00 UTC,2445111.312500,29.6650,-93.4789,0086,-4.67,-1.79,5.0000,249.0000
1982-05-21 20:00:00 UTC,2445111.333333,29.6650,-93.4789,0086,-4.95,-0.70,5.0000,262.0000
1982-05-21 20:30:00 UTC,2445111.354167,29.6650,-93.4789,0086,-4.96,-0.61,5.0000,263.0000
1982-05-21 21:00:00 UTC,2445111.375000,29.6650,-93.4789,0086,-4.67,-1.79,5.0000,249.0000
1982-05-21 21:30:00 UTC,2445111.395833,29.6650,-93.4789,0086,-3.19,-2.41,4.0000,233.0000
1982-05-21 22:00:00 UTC,2445111.416667,29.6650,-93.4789,0086,-3.83,-3.21,5.0000,230.0000
1982-05-21 22:30:00 UTC,2445111.437500,29.6650,-93.4789,0086,-4.46,-2.27,5.0000,243.0000
1982-05-21 23:00:00 UTC,2445111.458333,29.6650,-93.4789,0086,-3.94,-0.69,4.0000,260.0000
1982-05-21 23:30:00 UTC,2445111.479167,29.6650,-93.4789,0086,-2.94,0.57,3.0000,281.0000
1982-05-22 00:00:00 UTC,2445111.500000,29.6650,-93.4789,0086,-2.12,2.12,3.0000,315.0000
1982-05-22 00:30:00 UTC,2445111.520833,29.6650,-93.4789,0086,-2.52,3.11,4.0000,321.0000
1982-05-22 01:00:00 UTC,2445111.541667,29.6650,-93.4789,0086,-4.24,4.24,6.0000,315.0000
1982-05-22 01:30:00 UTC,2445111.562500,29.6650,-93.4789,0086,-4.86,5.04,7.0000,316.0000
1982-05-22 02:00:00 UTC,2445111.583333,29.6650,-93.4789,0086,-3.53,4.85,6.0000,324.0000
1982-05-22 02:30:00 UTC,2445111.604167,29.6650,-93.4789,0086,-3.18,5.09,6.0000,328.0000
1982-05-22 03:00:00 UTC,2445111.625000,29.6650,-93.4789,0086,-4.77,5.12,7.0000,317.0000
1982-05-22 03:30:00 UTC,2445111.645833,29.6650,-93.4789,0086,-6.39,4.81,8.0000,307.0000
1982-05-22 04:00:00 UTC,2445111.666667,29.6650,-93.4789,0086,-6.86,4.12,8.0000,301.0000
1982-05-22 04:30:00 UTC,2445111.687500,29.6650,-93.4789,0086,-7.19,3.51,8.0000,296.0000
1982-05-22 05:00:00 UTC,2445111.708333,29.6650,-93.4789,0086,-8.28,3.52,9.0000,293.0000
1982-05-22 05:30:00 UTC,2445111.729167,29.6650,-93.4789,0086,-8.56,2.78,9.0000,288.0000
1982-05-22 06:00:00 UTC,2445111.750000,29.6650,-93.4789,0086,-7.85,1.53,8.0000,281.0000
1982-05-22 06:30:00 UTC,2445111.770833,29.6650,-93.4789,0086,-7.90,1.25,8.0000,279.0000
1982-05-22 07:00:00 UTC,2445111.791667,29.6650,-93.4789,0086,-7.85,1.53,8.0000,281.0000
1982-05-22 07:30:00 UTC,2445111.812500,29.6650,-93.4789,0086,-6.95,0.85,7.0000,277.0000
1982-05-22 08:00:00 UTC,2445111.833333,29.6650,-93.4789,0086,-7.00,-0.12,7.0000,269.0000
1982-05-22 08:30:00 UTC,2445111.854167,29.6650,-93.4789,0086,-6.96,-0.73,7.0000,264.0000
1982-05-22 09:00:00 UTC,2445111.875000,29.6650,-93.4789,0086,-6.89,-1.22,7.0000,260.0000
1982-05-22 09:30:00 UTC,2445111.895833,29.6650,-93.4789,0086,-6.85,-1.46,7.0000,258.0000
1982-05-22 10:00:00 UTC,2445111.916667,29.6650,-93.4789,0086,-7.88,-1.39,8.0000,260.0000
1982-05-22 10:30:00 UTC,2445111.937500,29.6650,-93.4789,0086,-6.95,-0.85,7.0000,263.0000
1982-05-22 11:00:00 UTC,2445111.958333,29.6650,-93.4789,0086,-5.97,-0.63,6.0000,264.0000